Location: Pian di Sc�
(43.6333°N, 11.5500°E)
Time: 16:43:03
(UTC+00:00)

Cosmos 1464 Rocket - Pass Details

Date: 07 August 2020
Orbit: 952 x 1002 km, 82.9° (Epoch: 17 September)

Event Time Altitude Azimuth Distance (km) Brightness Sun altitude
Exits shadow 00:08:51 67° 270° (W) 1,060 4.0 -29.0°
Maximum altitude 00:09:00 67° 280° (W) 1,058 4.0 -29.0°
Drops below altitude 10° 00:15:14 10° 3° (N) 2,723 7.2 -28.7°
Sets 00:17:46 0° 6° (N) 3,667 8.2 -28.6°
